Current weather by "City, St" or "zip code"  
 
Advertise Here

Current Conditions: West Bend Municipal Airport, WI

Fog


32.0 F

Last Updated on Feb 28 2021, 4:55 am CST
Humidity: 100%
Wind Speed: N 0.0 mph
Barometer 29.83 in
Dewpoint: 32.0 F
Visibility: 0.25 mi
Precip: --
Heat Index: NA
Wind Chill: NA
Current conditions at:

West Bend Municipal Airport, WI (KETB)

Lat: 43.42256 Lon: 88.1326

Local Radar Image active severe weather and emergency alerts image image weather storm and storm spotter reports image weather observation monitoring service image
Local
Radar
Active
Alerts
Storm Reports Obs
Monitoring

Sign-up For Email & Text Message Weather Alert Notification Services


Advertise Here

Observation History for West Bend Municipal Airport, WI


Time Wind
(mph)
Vis
(mi)
Weather Precip (in) Temperature (F) Relative
Humidity
Wind
Chill
(F)
Heat
Index
(F)
Pressure
Air Dwpt altimeter
(in)
sea level
(mb)
Rmks
4:55 am CST N 0.0 0.25 Fog -- 32.0 32.0 100% NA NA 29.83 M
3:55 am CST NE 4.6 0.25 Freezing Fog -- 32.0 32.0 100% 27 NA 29.86 M
2:55 am CST E 4.6 0.15 Freezing Fog -- 27.0 26.6 100% 22 NA 29.91 M
1:55 am CST N 0.0 3.00 Fog/Mist -- 27.0 26.6 100% NA NA 29.94 M
12:55 am CST N 0.0 4.00 Fog/Mist -- 27.0 26.6 100% NA NA 29.98 M
11:55 pm CST N 0.0 4.00 Fog/Mist -- 28.0 28.4 100% NA NA 30.00 M
10:55 pm CST N 0.0 7.00 Fair -- 32.0 30.2 93% NA NA 30.02 M
9:55 pm CST N 0.0 10.00 Fair -- 34.0 30.2 87% NA NA 30.02 M
8:55 pm CST N 0.0 10.00 Fair -- 36.0 28.4 75% NA NA 30.02 M
7:55 pm CST SE 3.5 10.00 Fair -- 39.0 28.4 65% NA NA 30.03 M
6:55 pm CST S 4.6 10.00 Fair -- 39.0 28.4 65% 36 NA 30.03 M
5:55 pm CST N 0.0 10.00 Fair -- 43.0 26.6 53% NA NA 30.03 M
5:35 pm CST N 0.0 10.00 Fair -- 45.0 26.6 49% NA NA 30.03 M
4:55 pm CST SW 3.5 10.00 Fair -- 46.0 28.4 50% NA NA 30.03 M
3:55 pm CST S 5.8 10.00 Fair -- 46.0 28.4 50% 43 NA 30.02 M
2:55 pm CST S 4.6 10.00 Fair -- 46.0 28.4 50% 44 NA 30.01 M
1:55 pm CST SW 9.2 10.00 Fair -- 46.0 28.4 50% 41 NA 30.00 M
12:55 pm CST SW 9.2 10.00 Fair -- 46.0 28.4 50% 41 NA 30.00 M
11:55 am CST W 6.9 10.00 Fair -- 45.0 30.2 57% 41 NA 29.99 M
11:35 am CST SW 4.6 10.00 Fair -- 45.0 30.2 57% 43 NA 29.98 M
10:55 am CST SW 5.8 10.00 Fair -- 41.0 32.0 70% 37 NA 29.97 M
9:55 am CST W 6.9 10.00 Fair -- 39.0 32.0 75% 34 NA 29.95 M
8:55 am CST W 8.1 10.00 Fair -- 36.0 32.0 87% 30 NA 29.91 M
7:55 am CST W 9.2 7.00 Fair -- 32.0 32.0 100% 24 NA 29.90 M

Regional Weather Observation


West Bend Municipal Airport, WI (KETB)

Fog
32.0 F

Wittman Regional Airport, WI (KOSH)

Fog/Mist
32.0 F

Juneau, Dodge County Airport, WI (KUNU)

Fog/Mist
34.0 F

Milwaukee-Timmerman, WI (KMWC)

Fog/Mist
34.0 F

Watertown, WI (KRYV)

Fog/Mist
35.0 F

Waukesha County Airport, WI (KUES)

Fog/Mist
32.0 F
Advertise Here

Advertise Here